CAPE
538 638 688 603 602 688 842 969 1118 1105 1092 940 909 978 1130 1096 1180 1028 1011 1033 1046 897 652 405 279 134 158 175 80 8 236 98
668 790 636 532 558 331 470 746 878 976 882 604 434 463 623 534 684 485 385 350 340 223 50 4 0 0 0 2 0 0 26 0
779 845 807 560 267 319 354 455 687 791 741 396 328 605 432 393 272 185 75 17 5 0 0 0 0 0 0 0 0 0 0 0
848 977 1053 706 235 240 481 555 739 870 963 772 615 454 262 95 45 34 1 0 0 0 0 0 0 0 0 0 0 0 0 0
1073 1002 1003 1009 929 340 286 423 626 661 628 793 659 423 330 208 93 79 64 0 0 0 0 0 0 0 0 0 0 0 0 0
1251 945 706 613 594 706 358 409 533 664 641 513 590 639 613 365 137 88 49 0 0 0 0 0 0 0 0 0 0 0 0 0
760 226 29 41 33 247 381 420 609 614 448 319 322 432 443 214 114 13 0 0 0 0 0 0 0 0 0 0 0 0 0 0
60 1 22 13 32 110 291 302 333 260 255 174 15 78 65 16 0 0 0 0 0 0 0 0 0 0 0 0 0 0 0 0
0 0 0 0 0 0 1 2 0 0 3 0 0 0 0 5 10 15 0 0 0 0 0 0 0 0 0 0 0 0 0 0
0 0 0 0 0 0 0 0 0 0 0 0 0 0 0 0 0 8 30 0 0 0 0 0 0 0 0 0 0 0 0 0
0 0 0 0 0 0 0 0 0 0 0 0 0 0 0 0 0 0 25 16 0 0 0 0 0 0 0 0 0 0 0 0
0 0 0 0 0 0 0 0 0 0 0 0 0 0 0 0 0 0 0 0 0 0 0 0 0 0 0 0 0 0 0 0
0 0 0 0 0 0 0 0 0 0 0 0 0 0 0 0 0 0 0 0 0 0 0 0 0 0 0 0 0 0 0 0
0 0 0 0 0 0 0 0 0 0 0 0 0 0 0 0 0 0 0 0 0 0 0 0 0 0 0 0 0 0 0 0
0 0 0 0 0 0 0 0 0 0 0 0 0 0 0 0 0 0 0 0 0 0 0 0 0 0 0 0 0 0 0 0
0 0 0 0 0 0 0 0 0 0 0 0 0 0 0 0 0 0 0 0 0 0 0 0 0 0 0 0 0 0 0 0
0 0 0 0 0 0 0 0 0 0 0 0 0 0 0 0 0 0 0 0 0 0 0 0 0 0 0 0 0 0 0 0
0 0 0 0 0 0 0 0 0 0 0 0 0 0 0 0 0 0 0 0 0 0 0 0 0 0 0 0 0 0 0 0
0 0 0 0 0 0 0 0 0 0 0 0 0 0 0 0 0 0 0 1 2 6 14 22 22 16 6 7 6 8 6 5
0 0 0 0 0 0 0 0 0 0 0 0 0 0 0 0 0 0 1 1 6 12 1 6 2 2 2 6 5 6 8 15
CIN
-221 -194 -205 -242 -239 -209 -170 -141 -107 -86 -70 -80 -67 -45 -28 -29 -15 -26 -29 -28 -27 -37 -66 -126 -164 -233 -204 -167 -221 -122 -56 -88
-157 -135 -171 -184 -168 -297 -258 -161 -114 -88 -95 -146 -178 -143 -97 -115 -69 -93 -119 -138 -142 -195 -338 -378 0 0 0 -323 0 0 -196 0
-156 -138 -158 -190 -248 -255 -257 -211 -147 -114 -110 -189 -224 -94 -114 -112 -168 -208 -278 -368 -289 0 0 0 0 0 0 0 0 0 0 0
-138 -132 -117 -165 -263 -255 -163 -133 -97 -78 -55 -68 -77 -94 -120 -209 -271 -276 -174 0 0 0 0 0 0 0 0 0 0 0 0 0
-111 -131 -133 -113 -101 -177 -177 -128 -98 -92 -90 -52 -48 -65 -64 -73 -117 -108 -125 0 0 0 0 0 0 0 0 0 0 0 0 0
-97 -141 -164 -160 -132 -99 -158 -123 -86 -62 -63 -68 -38 -19 -14 -27 -53 -58 -71 0 0 0 0 0 0 0 0 0 0 0 0 0
-125 -258 -346 -326 -332 -197 -140 -99 -55 -52 -64 -75 -56 -29 -20 -38 -40 -39 0 0 0 0 0 0 0 0 0 0 0 0 0 0
-328 -128 -424 -446 -315 -219 -147 -122 -90 -89 -71 -76 -68 -79 -65 -70 0 0 0 0 0 0 0 0 0 0 0 0 0 0 0 0
0 0 0 0 0 0 -17 -14 0 -5 -9 -1 0 0 0 -71 -50 -38 0 0 0 0 0 0 0 0 0 0 0 0 0 0
0 0 0 0 0 0 0 0 0 0 0 0 0 0 0 0 0 -43 -54 0 0 0 0 0 0 0 0 0 0 0 0 0
0 0 0 0 0 0 0 0 0 0 0 0 0 0 0 0 0 0 -102 -81 0 0 0 0 0 0 0 0 0 0 0 0
0 0 0 0 0 0 0 0 0 0 0 0 0 0 0 0 0 0 0 0 0 0 0 0 0 0 0 0 0 0 0 0
0 0 0 0 0 0 0 0 0 0 0 0 0 0 0 0 0 0 0 0 0 0 0 0 0 0 0 0 0 0 0 0
0 0 0 0 0 0 0 0 0 0 0 0 0 0 0 0 0 0 0 0 0 0 0 0 0 0 0 0 0 0 0 0
0 0 0 0 0 0 0 0 0 0 0 0 0 0 0 0 0 0 0 0 0 0 0 0 0 0 0 0 0 0 0 0
0 0 0 0 0 0 0 0 0 0 0 0 0 0 0 0 0 0 0 0 0 0 0 0 0 0 0 0 0 0 0 0
0 0 0 0 0 0 0 0 0 0 0 0 0 0 0 0 0 0 0 0 0 0 0 0 0 0 0 0 0 0 0 0
0 0 0 0 0 0 0 0 0 0 0 0 0 0 0 0 0 0 0 0 0 0 0 0 0 0 0 0 0 0 0 0
0 0 0 0 0 0 0 0 0 0 0 0 0 0 0 0 0 0 0 0 0 0 0 0 0 0 0 0 0 0 0 0
0 0 0 0 0 0 0 0 0 0 0 0 0 0 0 0 0 0 0 0 0 0 -1 0 0 0 0 0 0 0 0 0
Wind_Speed
6 6 6 6 6 7 7 7 7 7 7 7 7 7 7 8 8 8 9 10 10 10 11 11 10 10 9 7 7 6 4 3
5 5 5 4 4 5 6 5 5 5 5 6 6 6 7 7 6 8 9 9 9 9 9 9 9 9 9 8 6 2 5 3
5 5 4 4 3 3 4 5 5 5 5 5 4 3 3 4 6 7 7 7 7 7 7 7 6 6 6 5 3 3 3 3
6 5 4 2 1 3 3 3 3 2 2 2 1 1 1 2 3 5 4 5 6 6 6 5 2 2 2 3 2 2 2 3
6 5 4 4 3 2 2 2 2 2 3 3 3 2 1 1 1 1 1 1 1 2 2 3 4 2 1 1 1 1 1 2
7 6 4 4 3 3 3 3 3 3 3 4 3 3 3 3 3 3 3 2 2 2 1 2 3 3 3 3 2 1 0 1
7 5 4 4 4 2 3 4 3 3 3 4 4 4 4 4 4 4 4 4 4 4 3 3 3 2 2 2 2 1 2 1
7 6 5 3 3 4 3 3 4 4 4 4 5 4 4 5 5 5 5 5 4 4 4 3 3 3 3 3 4 3 2 1
9 6 5 5 5 4 4 3 3 3 4 5 6 5 6 6 5 6 6 5 6 5 5 4 4 4 5 4 4 5 3 3
8 6 7 6 5 4 3 3 3 3 4 5 7 7 7 6 6 7 6 5 5 5 5 5 5 5 4 5 4 4 5 5
10 8 8 7 6 4 4 4 4 4 4 5 8 9 9 8 7 8 7 6 7 7 7 7 7 7 7 6 6 5 6 5
9 8 8 6 4 3 3 4 5 4 5 6 8 8 10 9 9 10 8 8 8 9 10 8 8 8 7 7 7 6 6 6
9 8 5 2 2 3 2 3 4 3 4 6 9 9 11 11 10 10 9 10 13 12 10 11 9 7 5 8 9 9 9 8
3 6 7 4 2 1 2 3 4 5 6 7 7 9 10 10 12 12 12 11 13 14 13 10 9 9 8 7 7 7 8 9
7 6 6 6 5 3 3 3 3 4 8 10 11 13 12 11 12 11 12 11 11 14 14 16 12 10 14 9 6 10 5 5
9 10 11 9 9 8 8 6 7 7 8 8 11 12 12 11 10 11 12 10 13 13 12 14 13 13 7 11 8 6 9 10
9 8 9 9 8 7 5 6 5 6 8 12 12 11 10 10 10 10 10 9 11 13 13 12 11 10 11 6 9 6 4 9
7 8 6 8 8 6 6 9 11 11 13 12 11 10 10 9 9 6 4 3 3 1 3 1 3 2 2 2 2 4 7 5
8 9 7 9 11 11 12 10 10 12 14 11 14 11 10 7 4 2 4 7 8 8 7 7 6 5 4 4 4 4 2 2
8 11 14 14 13 12 9 9 8 10 12 12 11 10 7 2 5 7 7 7 6 6 4 3 6 5 6 4 2 1 2 2
Wind_Direction
147 146 133 112 108 105 102 92 86 87 92 88 93 96 92 84 82 82 79 76 80 87 87 82 71 62 55 54 53 55 60 60
163 147 136 126 123 112 108 108 108 106 108 106 97 92 86 88 93 84 82 80 76 76 76 75 70 64 59 64 56 67 33 20
186 173 167 159 131 101 129 136 136 138 139 122 122 90 88 99 89 99 88 79 72 66 62 62 80 83 73 65 7 20 0 5
209 207 199 184 173 169 158 149 149 147 147 139 127 98 79 67 97 80 69 52 39 39 48 61 45 44 97 146 41 17 354 346
209 215 220 235 239 212 201 210 177 157 165 187 185 200 224 236 235 251 313 55 344 345 344 357 355 349 353 353 0 293 349 17
215 218 229 245 259 238 229 229 222 220 211 214 228 236 238 243 248 253 259 253 254 242 248 267 280 301 312 311 307 268 83 82
219 207 226 230 244 259 237 232 239 253 236 221 221 232 238 241 243 241 242 234 235 228 230 241 239 229 216 248 248 175 123 103
208 215 226 227 254 243 233 227 239 246 247 243 229 246 252 252 253 249 242 232 231 227 231 233 236 237 220 198 210 193 162 122
210 207 218 222 237 245 238 229 241 255 258 253 248 246 252 258 260 256 254 240 236 233 224 225 234 229 239 218 206 200 203 180
204 204 213 228 238 238 243 241 242 252 260 264 255 252 249 249 253 255 253 240 239 240 238 241 244 238 237 233 232 222 196 200
208 206 216 221 232 249 250 257 249 255 262 263 264 257 248 246 249 254 247 241 232 230 228 229 233 232 233 234 230 229 214 215
202 205 217 220 244 259 260 265 260 257 258 258 268 264 260 250 253 252 237 237 237 229 232 221 236 241 238 238 236 237 235 225
205 212 226 277 309 307 311 310 323 301 301 295 278 274 269 262 262 264 252 242 240 233 234 236 230 226 228 237 245 238 236 238
324 8 24 4 314 343 331 314 299 299 309 301 291 278 271 261 257 259 253 249 247 243 229 231 239 212 225 250 259 222 222 223
25 26 31 33 18 357 344 309 302 322 335 328 327 318 308 292 281 271 269 258 255 247 239 232 237 221 221 227 233 247 249 183
55 67 65 44 33 27 12 347 329 334 319 311 307 305 306 306 299 289 278 271 260 258 251 244 239 246 222 235 248 281 241 246
54 52 42 28 27 21 7 353 337 322 316 315 310 309 309 309 305 295 287 280 275 273 267 252 244 241 234 221 224 216 224 249
37 27 23 18 12 9 7 8 352 341 339 332 328 323 317 311 306 305 316 331 331 357 55 326 271 201 171 165 281 237 216 218
10 3 7 10 8 11 7 351 343 331 329 323 317 309 307 312 321 55 75 83 82 80 66 55 55 52 57 56 43 34 38 74
356 0 4 3 360 352 344 336 331 328 321 310 300 303 302 220 131 115 101 101 94 83 76 73 68 50 44 45 74 176 231 243